Showing default

HAWK-7C, 56200

Orbit data source: Space-Track

HAWK-7C, 56200 is a payload satellite owned by HawkEye 360 (US) in SSO that was launched on Sat, 15 Apr 2023 UTC via an FALCON 9 launch vehicle from the Air Force Western Test Range (AFWTR). Payload-class satellites include a variety of spacecraft equipped with specific instruments for various scientific and technological missions. These include communications satellites like Starlink; space stations such as the ISS; scientific satellites like the Hubble; Earth observation satellites from companies like Planet Labs, Umbra, and HawkEye 360; GPS; miniature CubeSats for education and research; and military/defense satellites.

Loading next visibility...
Identifier
56200, 2023-054Y
Orbit
SSO
Country
Flag of USUS
Related business
Manufacturer
UTIAS-SFL
Mission
Operational Commercial Sigint
Bus & Motor
HAWK2G, Unknown motor
Mass
31 kg wet, 30 kg dry
Launch date (UTC)
2023-04-15 (3 years ago)
Launch vehicle
FALCON 9
Launch site
Air Force Western Test Range (AFWTR)
Object type
Payload
Rocket body
Debris
Shape & HBR
Box + 2 Pan, 1.0 m
Radar Cross Section
0.240 m², Medium (>0.1 m² and < 1m²)

Expand to show TLE details & history
Last TLE update: 1 day ago

TLE from 1 day ago
0 HAWK-7C
1 56200U 23054Y   25309.43266669  .00009097  00000-0  31769-3 0  9992
2 56200  97.2988 195.9140 0006515 149.4855 210.6766 15.29782026142861
Epoch: 2025-11-05T10:23Z
TLE epoch observation values (Epoch: 2025-11-05T10:23:02.402Z)
Latitude
0.00001°
Longitude
-4.75142°
Altitude
483.412 km
Speed
7.622 km/s
True Right ascension
13h 03m 39s
True Declination
0° 00' 00"
Sunlit
Object was in daylight at epoch
Visualization orbit readout
Latitude
Unknown
Longitude
Unknown
Altitude
Unknown
Speed
Unknown
Apparent Right ascension
Unknown
Apparent Declination
Unknown
Sunlit
N/A
Visualization observer readout
Local Sidereal Time
10:39:42
Azimuth
Unknown
Elevation
Unknown
Doppler factor
Unknown
Orbital elements
Apogee altitude
477.875 km
Perigee altitude
468.948 km
Semi-major axis
6,851.549 km
Eccentricity
0.00065
Inclination
97.2988°
RAAN
195.914°
Arg. of periapsis
149.4855°
True anomaly
210.63854°
Mean anomaly
210.6766°
Eccentric anomaly
210.65757°
Mean motion
3.82701 °/min
Orbital period
94.07 mins
BSTAR
0.00031769
Loading maneuver chart data...
Computing Atmospheric mass density...
Loading historical data...
Loading historical data...
Loading historical data...
Loading historical data...
Loading historical data...
Loading historical data...
Loading historical data...

Documentation

Showing up to 5 results
|